Location: Ethel Rock
(53.4667°N, 4.5667°W)
Time: 03:56:15
(UTC+00:00)

Meteor 2-15 - Pass Details

Date: 24 October 2020
Orbit: 935 x 956 km, 82.5° (Epoch: 25 November)

Event Time Altitude Azimuth Distance (km) Brightness Sun altitude
Rises 06:21:49 0° 347° (NNW) 3,633 7.2 -6.7°
Reaches altitude 10° 06:24:20 10° 347° (NNW) 2,681 6.6 -6.4°
Maximum altitude 06:30:27 78° 262° (W) 968 4.4 -5.5°
Drops below altitude 10° 06:36:30 10° 177° (S) 2,649 7.0 -4.6°
Sets 06:38:58 0° 176° (S) 3,587 7.7 -4.2°
